SCP
2 1 0 1 0 0 0 0 0 0 0 0 0 0 0 0 0 0 0 0 0 0 0 0 0 0 0 0 0 0 1 1 1 1 1 1 0 0 0 0 0 0 0
1 2 3 1 1 0 0 0 0 0 1 0 0 0 1 1 1 1 0 0 0 0 0 1 0 0 0 0 0 0 0 0 0 1 1 0 0 0 0 0 0 0 0
3 2 2 2 1 1 0 1 1 2 1 1 1 1 1 1 1 1 1 1 1 1 1 1 1 1 0 1 0 0 0 0 0 1 1 0 0 0 0 0 0 0 0
4 5 4 2 3 4 3 3 2 2 1 1 1 1 1 1 1 2 2 1 1 1 1 1 1 1 1 1 1 0 0 0 0 1 0 0 0 0 0 0 0 0 0
3 6 2 3 3 5 6 3 3 2 1 1 1 2 2 2 2 2 1 1 1 1 1 2 1 1 1 1 1 1 1 1 1 1 0 0 0 0 0 0 0 0 0
3 3 4 3 4 3 2 3 2 1 1 2 1 1 1 2 2 2 2 1 2 2 2 3 2 1 1 1 1 1 1 1 1 1 0 0 0 0 0 1 0 0 0
4 3 3 2 3 2 2 2 2 2 2 1 3 3 2 4 3 2 3 2 2 3 3 4 6 4 3 2 1 1 2 1 1 1 1 1 0 0 0 0 0 0 0
6 6 3 3 2 3 2 2 2 2 3 2 2 3 3 2 2 5 4 4 3 3 5 5 4 3 5 4 2 1 1 0 1 1 1 1 1 0 0 0 0 0 0
6 7 6 4 4 4 3 3 4 3 3 5 3 5 4 2 4 7 7 4 3 4 5 3 4 4 4 5 4 2 1 1 1 1 1 0 1 1 0 0 1 0 0
4 6 8 7 4 7 6 5 5 6 7 6 8 5 3 8 5 5 7 4 3 5 4 7 4 1 0 0 0 0 0 0 0 -0 1 1 1 1 0 0 0 1 0
6 6 8 8 8 9 8 6 7 9 10 7 7 5 4 7 6 4 3 5 5 3 4 2 1 0 0 0 0 0 -0 0 0 0 1 0 1 0 0 0 0 0 0
11 7 7 10 11 9 7 6 7 9 9 8 7 7 6 6 4 5 4 3 3 2 2 1 0 0 0 0 0 0 0 0 0 0 0 0 0 0 0 0 0 0 0
7 10 10 10 12 9 8 6 7 10 11 10 7 10 9 7 6 4 3 2 2 1 1 0 1 0 0 0 1 1 0 0 0 0 0 0 0 0 0 0 0 0 0
4 7 14 11 11 11 10 8 12 12 13 14 9 8 8 6 6 5 4 3 2 1 1 0 0 0 0 0 1 1 0 0 -0 0 0 0 0 0 0 0 0 0 0
5 3 6 8 9 9 11 10 8 0 0 4 11 14 9 6 4 4 4 3 2 1 1 0 0 0 1 1 1 1 1 0 -0 0 0 0 0 0 0 0 0 0 0
4 5 4 1 0 0 0 0 0 0 0 0 0 1 3 3 3 4 3 3 2 2 1 1 1 1 1 1 1 1 1 1 0 0 0 0 0 0 0 0 0 0 0
3 4 2 2 0 0 0 0 -0 0 0 0 0 0 0 1 2 4 3 3 3 3 1 0 1 1 1 1 1 1 1 0 1 0 0 0 0 0 0 0 0 0 0
2 3 2 0 0 0 0 0 0 0 0 0 -0 -0 0 1 2 3 2 2 1 1 0 0 0 0 1 1 1 1 2 1 0 0 0 0 0 0 0 0 0 0 0
0 2 2 0 0 0 0 0 0 0 0 0 -1 0 1 2 3 3 2 2 2 1 0 0 0 0 1 1 1 1 1 1 1 0 0 0 0 0 0 0 0 0 0
0 1 1 0 0 0 0 0 -0 -0 -0 -0 0 1 1 1 2 2 1 1 1 1 1 0 0 0 0 0 0 0 1 1 1 1 0 0 0 0 0 0 0 0 0
0 -0 0 0 -0 0 -0 -0 -0 1 1 0 0 0 0 0 0 0 0 0 0 0 0 0 0 0 0 0 0 0 0 0 0 0 0 0 0 0 0 0 0 0 0
0 0 0 1 2 0 0 0 0 1 0 0 0 0 0 0 0 0 0 0 0 0 0 0 0 0 0 0 0 0 0 0 0 0 0 0 0 0 0 0 0 0 0
0 0 0 0 0 0 0 0 0 1 0 0 0 1 0 0 0 0 0 0 0 0 0 0 0 0 0 0 0 0 0 0 0 0 0 0 0 0 0 0 0 0 0
0 0 0 0 0 0 0 0 0 1 1 1 1 1 0 0 0 0 0 0 0 0 0 0 0 0 0 0 0 0 0 0 0 0 0 -0 0 0 0 0 0 0 0
0 0 0 0 0 0 0 0 0 1 1 1 1 0 0 0 0 0 0 0 0 -0 0 -0 -0 -0 0 0 0 0 0 0 0 -0 0 0 0 0 0 0 0 0 0
0 0 0 0 0 1 0 0 0 1 1 1 0 0 0 0 0 0 0 0 0 -0 0 0 0 0 -0 -0 0 0 0 0 0 -0 0 -0 0 0 0 0 0 0 0
Wind_Speed_500mb
61 56 49 44 40 41 46 40 33 20 22 22 29 21 30 24 23 27 24 25 27 25 23 19 17 15 15 19 21 21 22 19 18 22 20 22 23 29 34 33 30 29 28
68 63 66 59 49 44 42 30 36 33 38 37 25 22 28 28 30 26 25 26 29 24 25 24 17 17 18 19 22 24 23 24 21 23 24 24 26 26 33 37 35 33 31
76 75 75 70 63 54 45 44 35 38 41 37 29 28 30 33 31 29 30 26 22 26 27 20 19 19 17 15 24 28 28 28 28 26 23 23 26 29 30 37 39 37 36
70 73 74 75 69 57 54 52 52 56 53 42 33 26 30 27 21 27 31 36 22 29 27 23 22 21 9 8 17 22 26 21 27 34 30 28 25 28 30 33 36 38 38
68 79 82 81 75 77 74 70 66 64 55 37 40 37 43 41 36 37 35 27 29 40 40 32 30 25 17 10 8 9 13 21 28 28 35 39 37 33 32 36 33 34 38
75 72 89 88 84 82 79 74 71 60 52 46 45 44 47 46 41 34 34 37 45 40 32 39 38 36 35 21 13 21 27 39 37 38 39 43 45 41 35 38 35 35 34
83 81 81 89 79 86 91 90 86 76 63 58 55 51 55 53 57 50 40 35 44 39 37 54 51 32 35 26 19 26 33 47 53 52 51 49 54 50 43 37 37 39 36
80 88 84 83 90 89 94 93 88 78 73 66 73 65 59 69 69 59 41 41 40 41 49 52 60 38 30 23 22 31 29 45 52 55 60 58 61 54 48 44 40 42 39
83 88 91 86 84 93 109 110 99 96 87 83 84 59 24 32 38 49 52 46 46 50 50 53 58 47 34 30 29 30 37 62 56 59 63 63 51 54 54 44 45 47 43
88 90 91 96 93 98 107 104 104 100 92 89 81 78 65 28 19 19 42 44 44 49 53 54 57 62 60 61 65 61 78 60 70 67 53 55 48 49 54 49 48 50 46
90 93 101 111 111 100 108 114 98 111 104 94 87 77 72 71 64 49 29 40 46 54 64 65 65 67 64 67 79 89 87 106 69 68 56 52 48 47 47 48 48 50 48
90 97 101 114 117 116 110 106 104 101 106 108 85 81 74 72 61 71 65 53 48 56 64 62 73 74 62 64 61 55 52 44 60 56 42 41 40 48 52 46 45 48 48
89 97 105 108 112 112 111 111 100 104 106 98 90 80 75 64 65 58 53 60 60 58 63 67 72 66 55 53 60 45 37 53 44 45 48 47 42 45 43 44 46 46 48
96 84 110 112 118 117 108 112 108 100 97 103 100 83 78 69 66 50 51 50 47 53 63 68 55 41 35 33 36 46 39 36 39 41 42 47 49 42 42 43 42 46 45
95 106 81 113 121 112 105 110 100 98 67 88 100 78 68 66 43 49 58 62 59 35 28 46 42 34 34 38 40 47 45 47 55 48 47 47 51 49 43 45 45 43 48
91 100 110 103 95 62 114 68 102 90 75 90 20 50 63 66 59 50 56 47 42 44 32 44 41 37 30 31 43 44 50 60 56 52 46 45 43 48 42 45 43 42 47
90 105 104 99 101 81 92 101 101 41 58 86 46 43 46 47 40 44 47 44 43 37 36 49 42 38 42 47 55 52 52 57 51 56 41 45 39 39 39 42 39 40 43
89 90 82 74 69 40 70 105 96 65 69 67 71 58 62 48 44 49 49 39 37 37 39 37 42 37 43 47 49 51 55 53 49 57 39 37 38 34 39 35 34 37 41
71 64 72 76 65 70 61 36 41 45 56 57 60 65 50 42 40 34 27 24 16 21 23 26 38 38 37 37 43 52 60 57 51 48 37 35 33 37 27 37 38 39 42
50 36 47 45 40 54 67 45 62 64 51 76 59 41 35 32 26 27 29 28 28 32 31 27 33 41 38 41 51 54 54 49 47 38 33 34 36 33 35 48 41 41 38
29 57 27 34 64 68 61 53 86 59 61 64 61 56 50 41 34 30 26 18 18 22 28 29 33 36 32 27 31 28 36 35 32 37 49 43 40 35 35 43 42 41 37
51 88 27 31 21 41 49 60 61 55 52 47 47 40 27 20 17 15 7 6 10 17 27 31 39 48 52 53 51 44 46 46 49 38 39 44 46 39 36 29 27 31 30
45 39 36 51 15 15 30 45 51 54 44 41 40 36 26 22 18 10 8 9 15 19 24 27 36 41 43 43 46 53 55 56 55 49 45 54 41 41 33 29 24 18 18
36 33 50 38 48 48 51 54 42 44 45 40 42 39 34 31 20 11 6 12 15 21 24 29 38 43 40 40 39 42 42 52 55 50 47 60 45 43 33 30 26 18 16
50 41 40 25 24 43 36 37 48 53 51 46 42 35 24 9 4 11 14 19 28 34 38 38 35 39 50 51 52 54 59 59 67 57 46 37 39 35 29 30 25 15 15
62 69 46 34 8 30 46 47 55 53 46 35 24 14 9 10 5 10 18 27 38 44 48 54 57 54 45 51 51 46 51 58 54 53 37 52 45 27 22 29 21 13 17
Wind_Direction_500mb
216 210 223 222 238 233 227 231 234 239 266 257 247 245 235 228 226 239 233 258 280 291 285 278 286 294 288 277 273 276 285 284 292 278 272 267 268 256 251 252 254 259 259
220 217 212 213 217 229 229 230 227 213 227 240 242 253 233 235 233 246 232 253 270 294 300 277 268 274 279 276 270 266 269 273 281 284 282 275 274 269 255 252 252 255 259
221 214 220 217 204 222 214 214 220 223 225 239 224 232 247 243 239 246 261 253 250 280 288 266 255 250 256 272 275 266 266 272 280 277 282 288 282 276 267 256 254 256 257
227 216 220 220 210 207 211 211 210 212 227 231 235 238 247 253 241 251 248 267 245 260 259 259 244 235 222 257 273 274 269 276 279 274 273 277 284 280 272 262 253 257 258
236 225 223 225 219 210 212 209 216 223 225 227 230 225 235 233 234 234 251 262 255 257 252 223 242 219 239 294 316 319 317 324 323 298 281 275 268 276 270 266 255 258 262
240 234 231 226 224 219 216 220 221 229 230 226 229 225 237 242 240 240 244 255 244 251 245 220 229 234 257 256 287 306 317 322 312 301 285 277 272 268 274 267 259 259 264
242 242 240 235 226 229 231 231 234 225 220 226 222 230 227 229 231 232 245 259 255 236 244 225 230 249 248 233 237 266 290 300 303 301 293 282 272 268 266 264 259 262 263
242 246 246 240 233 226 232 233 229 227 230 225 219 222 232 233 238 234 247 252 254 224 236 239 234 243 218 244 265 269 289 302 296 291 293 290 274 266 264 264 262 261 259
235 240 244 238 240 228 233 237 233 225 225 226 223 211 214 233 239 241 249 245 239 226 226 231 237 242 249 264 250 243 272 302 298 286 280 283 278 266 257 267 264 259 258
234 235 239 243 240 233 228 234 234 230 226 223 216 224 224 227 233 204 223 238 238 229 237 233 237 241 247 271 273 281 292 290 291 284 273 281 274 263 256 264 264 261 258
240 233 234 238 243 235 236 231 233 230 225 223 224 225 227 237 238 241 229 231 238 236 233 239 237 251 260 274 287 283 297 276 278 282 281 284 277 260 257 266 261 261 262
243 237 233 237 242 242 241 233 230 234 227 228 218 225 227 222 236 243 245 239 242 251 248 256 255 262 272 290 301 302 286 280 280 281 281 278 270 260 271 268 262 262 263
247 242 240 240 239 243 242 239 229 226 230 227 226 212 227 232 236 240 248 247 252 254 257 273 268 279 288 292 281 283 281 287 285 287 286 280 271 263 268 269 266 265 263
246 252 243 242 245 242 242 240 225 226 226 222 226 217 224 224 225 221 235 240 242 252 265 269 285 294 294 288 269 258 288 300 283 296 316 284 271 272 267 271 272 268 262
253 248 256 243 242 242 240 237 229 225 226 245 220 203 205 219 215 230 235 241 246 240 255 277 282 286 282 295 256 265 276 308 299 284 297 304 276 272 267 270 271 267 264
257 255 252 249 260 237 241 277 234 206 228 245 302 231 210 222 218 223 244 244 238 237 251 275 281 290 294 282 269 275 289 304 292 297 291 302 284 266 265 267 269 264 259
260 259 260 250 256 244 228 264 280 205 227 209 264 253 240 226 211 219 236 243 236 244 248 265 272 277 288 277 274 283 293 296 295 294 291 305 282 271 267 268 264 258 257
270 258 254 248 236 228 232 224 245 280 247 213 221 225 231 223 222 224 231 238 250 250 271 267 291 287 286 287 279 288 291 286 293 295 284 304 279 263 259 257 253 257 262
266 255 249 245 234 235 242 206 205 216 210 177 203 219 221 225 226 224 220 221 221 236 258 268 284 289 288 298 296 285 281 289 285 293 279 292 287 271 256 253 251 258 267
287 262 245 209 225 234 202 189 199 199 164 183 190 192 183 184 189 193 206 223 238 242 250 267 281 288 294 296 291 286 278 277 278 282 296 297 281 272 264 255 250 261 269
296 328 235 243 215 190 178 162 202 176 162 172 178 176 182 190 202 219 227 230 244 255 260 261 262 266 274 285 317 304 310 300 280 282 292 302 285 256 259 257 250 260 263
264 296 251 233 175 151 147 158 160 164 172 175 173 172 170 174 185 207 208 251 280 290 287 279 276 271 268 274 283 291 294 296 297 290 288 293 286 237 250 260 250 254 244
292 293 289 255 229 5 167 152 160 167 168 161 152 157 152 165 167 201 282 314 312 302 296 298 288 285 289 287 286 285 284 288 286 284 283 286 281 238 248 247 244 257 262
273 262 289 237 230 181 182 174 169 169 165 164 169 174 175 185 192 223 290 319 313 311 312 296 285 284 283 282 280 282 286 289 284 278 272 279 292 243 226 237 232 247 268
248 268 268 228 198 185 181 183 177 177 173 177 180 183 189 184 265 303 302 307 321 327 325 321 312 297 277 273 275 276 273 279 285 281 274 280 284 244 229 224 244 234 263
249 252 265 256 177 166 182 188 192 186 189 189 199 212 247 286 271 278 292 306 314 321 318 314 314 309 294 272 263 264 269 275 278 285 274 290 280 248 204 226 224 241 268
Wind_Speed_850mb
61 56 49 44 40 41 46 40 33 20 22 22 29 21 30 24 23 27 24 25 27 25 23 19 17 15 15 19 21 21 22 19 18 22 20 22 23 29 34 33 30 29 28
68 63 66 59 49 44 42 30 36 33 38 37 25 22 28 28 30 26 25 26 29 24 25 24 17 17 18 19 22 24 23 24 21 23 24 24 26 26 33 37 35 33 31
76 75 75 70 63 54 45 44 35 38 41 37 29 28 30 33 31 29 30 26 22 26 27 20 19 19 17 15 24 28 28 28 28 26 23 23 26 29 30 37 39 37 36
70 73 74 75 69 57 54 52 52 56 53 42 33 26 30 27 21 27 31 36 22 29 27 23 22 21 9 8 17 22 26 21 27 34 30 28 25 28 30 33 36 38 38
68 79 82 81 75 77 74 70 66 64 55 37 40 37 43 41 36 37 35 27 29 40 40 32 30 25 17 10 8 9 13 21 28 28 35 39 37 33 32 36 33 34 38
75 72 89 88 84 82 79 74 71 60 52 46 45 44 47 46 41 34 34 37 45 40 32 39 38 36 35 21 13 21 27 39 37 38 39 43 45 41 35 38 35 35 34
83 81 81 89 79 86 91 90 86 76 63 58 55 51 55 53 57 50 40 35 44 39 37 54 51 32 35 26 19 26 33 47 53 52 51 49 54 50 43 37 37 39 36
80 88 84 83 90 89 94 93 88 78 73 66 73 65 59 69 69 59 41 41 40 41 49 52 60 38 30 23 22 31 29 45 52 55 60 58 61 54 48 44 40 42 39
83 88 91 86 84 93 109 110 99 96 87 83 84 59 24 32 38 49 52 46 46 50 50 53 58 47 34 30 29 30 37 62 56 59 63 63 51 54 54 44 45 47 43
88 90 91 96 93 98 107 104 104 100 92 89 81 78 65 28 19 19 42 44 44 49 53 54 57 62 60 61 65 61 78 60 70 67 53 55 48 49 54 49 48 50 46
90 93 101 111 111 100 108 114 98 111 104 94 87 77 72 71 64 49 29 40 46 54 64 65 65 67 64 67 79 89 87 106 69 68 56 52 48 47 47 48 48 50 48
90 97 101 114 117 116 110 106 104 101 106 108 85 81 74 72 61 71 65 53 48 56 64 62 73 74 62 64 61 55 52 44 60 56 42 41 40 48 52 46 45 48 48
89 97 105 108 112 112 111 111 100 104 106 98 90 80 75 64 65 58 53 60 60 58 63 67 72 66 55 53 60 45 37 53 44 45 48 47 42 45 43 44 46 46 48
96 84 110 112 118 117 108 112 108 100 97 103 100 83 78 69 66 50 51 50 47 53 63 68 55 41 35 33 36 46 39 36 39 41 42 47 49 42 42 43 42 46 45
95 106 81 113 121 112 105 110 100 98 67 88 100 78 68 66 43 49 58 62 59 35 28 46 42 34 34 38 40 47 45 47 55 48 47 47 51 49 43 45 45 43 48
91 100 110 103 95 62 114 68 102 90 75 90 20 50 63 66 59 50 56 47 42 44 32 44 41 37 30 31 43 44 50 60 56 52 46 45 43 48 42 45 43 42 47
90 105 104 99 101 81 92 101 101 41 58 86 46 43 46 47 40 44 47 44 43 37 36 49 42 38 42 47 55 52 52 57 51 56 41 45 39 39 39 42 39 40 43
89 90 82 74 69 40 70 105 96 65 69 67 71 58 62 48 44 49 49 39 37 37 39 37 42 37 43 47 49 51 55 53 49 57 39 37 38 34 39 35 34 37 41
71 64 72 76 65 70 61 36 41 45 56 57 60 65 50 42 40 34 27 24 16 21 23 26 38 38 37 37 43 52 60 57 51 48 37 35 33 37 27 37 38 39 42
50 36 47 45 40 54 67 45 62 64 51 76 59 41 35 32 26 27 29 28 28 32 31 27 33 41 38 41 51 54 54 49 47 38 33 34 36 33 35 48 41 41 38
29 57 27 34 64 68 61 53 86 59 61 64 61 56 50 41 34 30 26 18 18 22 28 29 33 36 32 27 31 28 36 35 32 37 49 43 40 35 35 43 42 41 37
51 88 27 31 21 41 49 60 61 55 52 47 47 40 27 20 17 15 7 6 10 17 27 31 39 48 52 53 51 44 46 46 49 38 39 44 46 39 36 29 27 31 30
45 39 36 51 15 15 30 45 51 54 44 41 40 36 26 22 18 10 8 9 15 19 24 27 36 41 43 43 46 53 55 56 55 49 45 54 41 41 33 29 24 18 18
36 33 50 38 48 48 51 54 42 44 45 40 42 39 34 31 20 11 6 12 15 21 24 29 38 43 40 40 39 42 42 52 55 50 47 60 45 43 33 30 26 18 16
50 41 40 25 24 43 36 37 48 53 51 46 42 35 24 9 4 11 14 19 28 34 38 38 35 39 50 51 52 54 59 59 67 57 46 37 39 35 29 30 25 15 15
62 69 46 34 8 30 46 47 55 53 46 35 24 14 9 10 5 10 18 27 38 44 48 54 57 54 45 51 51 46 51 58 54 53 37 52 45 27 22 29 21 13 17
Wind_Direction_850mb
216 210 223 222 238 233 227 231 234 239 266 257 247 245 235 228 226 239 233 258 280 291 285 278 286 294 288 277 273 276 285 284 292 278 272 267 268 256 251 252 254 259 259
220 217 212 213 217 229 229 230 227 213 227 240 242 253 233 235 233 246 232 253 270 294 300 277 268 274 279 276 270 266 269 273 281 284 282 275 274 269 255 252 252 255 259
221 214 220 217 204 222 214 214 220 223 225 239 224 232 247 243 239 246 261 253 250 280 288 266 255 250 256 272 275 266 266 272 280 277 282 288 282 276 267 256 254 256 257
227 216 220 220 210 207 211 211 210 212 227 231 235 238 247 253 241 251 248 267 245 260 259 259 244 235 222 257 273 274 269 276 279 274 273 277 284 280 272 262 253 257 258
236 225 223 225 219 210 212 209 216 223 225 227 230 225 235 233 234 234 251 262 255 257 252 223 242 219 239 294 316 319 317 324 323 298 281 275 268 276 270 266 255 258 262
240 234 231 226 224 219 216 220 221 229 230 226 229 225 237 242 240 240 244 255 244 251 245 220 229 234 257 256 287 306 317 322 312 301 285 277 272 268 274 267 259 259 264
242 242 240 235 226 229 231 231 234 225 220 226 222 230 227 229 231 232 245 259 255 236 244 225 230 249 248 233 237 266 290 300 303 301 293 282 272 268 266 264 259 262 263
242 246 246 240 233 226 232 233 229 227 230 225 219 222 232 233 238 234 247 252 254 224 236 239 234 243 218 244 265 269 289 302 296 291 293 290 274 266 264 264 262 261 259
235 240 244 238 240 228 233 237 233 225 225 226 223 211 214 233 239 241 249 245 239 226 226 231 237 242 249 264 250 243 272 302 298 286 280 283 278 266 257 267 264 259 258
234 235 239 243 240 233 228 234 234 230 226 223 216 224 224 227 233 204 223 238 238 229 237 233 237 241 247 271 273 281 292 290 291 284 273 281 274 263 256 264 264 261 258
240 233 234 238 243 235 236 231 233 230 225 223 224 225 227 237 238 241 229 231 238 236 233 239 237 251 260 274 287 283 297 276 278 282 281 284 277 260 257 266 261 261 262
243 237 233 237 242 242 241 233 230 234 227 228 218 225 227 222 236 243 245 239 242 251 248 256 255 262 272 290 301 302 286 280 280 281 281 278 270 260 271 268 262 262 263
247 242 240 240 239 243 242 239 229 226 230 227 226 212 227 232 236 240 248 247 252 254 257 273 268 279 288 292 281 283 281 287 285 287 286 280 271 263 268 269 266 265 263
246 252 243 242 245 242 242 240 225 226 226 222 226 217 224 224 225 221 235 240 242 252 265 269 285 294 294 288 269 258 288 300 283 296 316 284 271 272 267 271 272 268 262
253 248 256 243 242 242 240 237 229 225 226 245 220 203 205 219 215 230 235 241 246 240 255 277 282 286 282 295 256 265 276 308 299 284 297 304 276 272 267 270 271 267 264
257 255 252 249 260 237 241 277 234 206 228 245 302 231 210 222 218 223 244 244 238 237 251 275 281 290 294 282 269 275 289 304 292 297 291 302 284 266 265 267 269 264 259
260 259 260 250 256 244 228 264 280 205 227 209 264 253 240 226 211 219 236 243 236 244 248 265 272 277 288 277 274 283 293 296 295 294 291 305 282 271 267 268 264 258 257
270 258 254 248 236 228 232 224 245 280 247 213 221 225 231 223 222 224 231 238 250 250 271 267 291 287 286 287 279 288 291 286 293 295 284 304 279 263 259 257 253 257 262
266 255 249 245 234 235 242 206 205 216 210 177 203 219 221 225 226 224 220 221 221 236 258 268 284 289 288 298 296 285 281 289 285 293 279 292 287 271 256 253 251 258 267
287 262 245 209 225 234 202 189 199 199 164 183 190 192 183 184 189 193 206 223 238 242 250 267 281 288 294 296 291 286 278 277 278 282 296 297 281 272 264 255 250 261 269
296 328 235 243 215 190 178 162 202 176 162 172 178 176 182 190 202 219 227 230 244 255 260 261 262 266 274 285 317 304 310 300 280 282 292 302 285 256 259 257 250 260 263
264 296 251 233 175 151 147 158 160 164 172 175 173 172 170 174 185 207 208 251 280 290 287 279 276 271 268 274 283 291 294 296 297 290 288 293 286 237 250 260 250 254 244
292 293 289 255 229 5 167 152 160 167 168 161 152 157 152 165 167 201 282 314 312 302 296 298 288 285 289 287 286 285 284 288 286 284 283 286 281 238 248 247 244 257 262
273 262 289 237 230 181 182 174 169 169 165 164 169 174 175 185 192 223 290 319 313 311 312 296 285 284 283 282 280 282 286 289 284 278 272 279 292 243 226 237 232 247 268
248 268 268 228 198 185 181 183 177 177 173 177 180 183 189 184 265 303 302 307 321 327 325 321 312 297 277 273 275 276 273 279 285 281 274 280 284 244 229 224 244 234 263
249 252 265 256 177 166 182 188 192 186 189 189 199 212 247 286 271 278 292 306 314 321 318 314 314 309 294 272 263 264 269 275 278 285 274 290 280 248 204 226 224 241 268